Location: *
(44.3925°N, 5.4708°E)
Time: 00:41:13
(UTC+00:00)

FREGAT/IRIS - Pass Details

Date: 18 September 2019
Orbit: 347 x 350 km, 97.0° (Epoch: 13 October)

Event Time Altitude Azimuth Distance (km) Brightness Sun altitude
Exits shadow 18:45:18 10° 155° (SSE) 1,326 4.9 -11.7°
Reaches altitude 10° 18:45:19 10° 155° (SSE) 1,319 4.9 -11.7°
Maximum altitude 18:48:04 57° 76° (ENE) 424 2.4 -12.2°
Drops below altitude 10° 18:50:52 10° 356° (N) 1,335 5.5 -12.6°
Sets 18:52:49 0° 352° (N) 2,186 6.7 -13.0°
